Date String (YYYY-MM-DD hh:mm:ss) UTC,Instrument flags,absolute air pressure of the measurement (hPa),sample flow rate (lpm),inlet stack bypass flow (lpm),air temperature of the measurement (°C),ambient temperature measured by the external sensor (°C),aerosol sample conditioner tube jacket temperature (°C),OPC LED temperature (°C),internal box temperature (°C),relative humidity of the measurement (%),span deviation,mass concentration of particles derived from Lorenz-Mie calculation of OPC scattering (μg/m³),mass concentration of particles derived from Lorenz-Mie calculation of OPC scattering (μg/m³),mass concentration of particles derived from Lorenz-Mie calculation of OPC scattering (μg/m³)
DateTimeUTC,F1_M11,P_M11,Q1_M11,Q2_M11,T1_M11,T2_M11,T3_M11,T4_M11,T5_M11,U1_M11,ZSPAN_M11,X2_M11,X0_M11,X1_M11
2023-08-06 21:00:00,SystemResetWarning,0837.2,5.00,000.00,029.4,027.7,000.0,038.0,031.0,32.9,-000.3,0007.39,0011.01,0006.85
2023-08-06 21:01:00,SystemResetWarning,0837.4,4.99,000.00,029.4,027.8,000.0,038.0,031.1,32.8,-000.2,0007.42,0011.02,0006.90
2023-08-06 21:02:00,SystemResetWarning,0837.4,4.99,000.00,029.4,028.0,000.0,038.0,031.1,33.1,-000.5,0007.48,0011.05,0006.95
2023-08-06 21:03:00,SystemResetWarning,0837.2,5.00,000.00,029.5,028.1,000.0,038.0,031.1,32.7,-000.5,0007.54,0011.04,0007.00
2023-08-06 21:04:00,SystemResetWarning,0837.1,5.01,000.00,029.5,028.2,000.0,038.0,031.2,32.4,-000.4,0007.59,0011.29,0007.04
2023-08-06 21:05:00,SystemResetWarning,0836.9,5.01,000.00,029.5,028.3,000.0,038.1,031.2,32.0,-000.2,0007.59,0011.26,0007.06
2023-08-06 21:06:00,SystemResetWarning,0836.8,5.00,000.00,029.5,028.4,000.0,038.1,031.2,31.8,0000.3,0007.63,0010.82,0007.08
2023-08-06 21:07:00,SystemResetWarning,0836.7,4.99,000.00,029.6,028.4,000.0,038.1,031.3,31.7,0000.1,0007.65,0010.75,0007.07
2023-08-06 21:08:00,SystemResetWarning,0836.6,4.99,000.00,029.6,028.5,000.0,038.1,031.3,31.9,-000.4,0007.67,0010.80,0007.07
2023-08-06 21:09:00,SystemResetWarning,0836.7,4.99,000.00,029.6,028.4,000.0,038.1,031.3,31.9,-000.8,0007.69,0010.88,0007.06
2023-08-06 21:10:00,SystemResetWarning,0836.6,5.00,000.00,029.6,026.8,000.0,038.0,031.1,32.4,-001.4,0007.69,0011.00,0007.04
2023-08-06 21:11:00,SystemResetWarning,0836.4,5.00,000.00,029.6,025.6,000.0,037.9,030.9,32.2,-001.5,0007.66,0011.98,0007.03
2023-08-06 21:12:00,SystemResetWarning,0836.2,5.00,000.00,029.5,025.5,000.0,037.9,030.6,32.5,-001.6,0007.72,0012.16,0007.03
2023-08-06 21:13:00,SystemResetWarning,0836.0,5.01,000.00,029.3,025.8,000.0,037.9,030.6,32.5,-001.7,0007.70,0012.00,0007.02
2023-08-06 21:14:00,SystemResetWarning,0836.1,5.00,000.00,029.3,026.2,000.0,037.9,030.7,32.6,-001.8,0007.68,0012.00,0007.01
2023-08-06 21:15:00,SystemResetWarning,0836.4,4.99,000.00,029.3,026.6,000.0,037.9,030.8,33.0,-001.6,0007.63,0011.73,0007.01
2023-08-06 21:16:00,SystemResetWarning,0836.6,5.00,000.00,029.3,026.9,000.0,037.9,030.8,33.9,-001.4,0007.63,0011.60,0007.01
2023-08-06 21:17:00,SystemResetWarning,0836.6,5.00,000.00,029.3,027.2,000.0,038.0,030.9,34.0,-001.6,0007.58,0011.86,0006.99
2023-08-06 21:18:00,SystemResetWarning,0836.6,5.00,000.00,029.3,027.5,000.0,038.0,031.0,34.1,-001.7,0007.53,0011.91,0006.98
2023-08-06 21:19:00,SystemResetWarning,0836.5,4.99,000.00,029.4,027.7,000.0,038.0,031.0,33.4,-001.6,0007.50,0012.12,0006.98
2023-08-06 21:20:00,SystemResetWarning,0836.3,5.00,000.00,029.4,027.8,000.0,038.0,031.0,32.9,-001.9,0007.46,0012.28,0006.96
2023-08-06 21:21:00,SystemResetWarning,0836.1,5.00,000.00,029.4,028.0,000.0,038.0,031.1,33.6,-001.3,0007.41,0012.08,0006.93
2023-08-06 21:22:00,SystemResetWarning,0836.1,5.00,000.00,029.4,028.1,000.0,038.0,031.1,32.6,-001.2,0007.39,0011.00,0006.93
2023-08-06 21:23:00,SystemResetWarning,0836.0,4.99,000.00,029.5,028.2,000.0,038.0,031.2,32.5,-001.3,0007.29,0010.76,0006.90
2023-08-06 21:24:00,SystemResetWarning,0836.1,5.00,000.00,029.5,028.3,000.0,038.0,031.2,33.1,-001.1,0007.30,0010.79,0006.89
2023-08-06 21:25:00,SystemResetWarning,0836.2,5.00,000.00,029.5,028.4,000.0,038.1,031.2,34.1,-001.3,0007.28,0010.80,0006.88
2023-08-06 21:26:00,SystemResetWarning,0836.4,4.99,000.00,029.6,028.5,000.0,038.1,031.3,34.1,-001.9,0007.28,0010.93,0006.86
2023-08-06 21:27:00,SystemResetWarning,0836.6,5.00,000.00,029.6,028.5,000.0,038.1,031.3,33.4,-001.9,0007.27,0011.01,0006.85
2023-08-06 21:28:00,SystemResetWarning,0836.7,5.00,000.00,029.6,027.0,000.0,038.0,031.1,33.0,-001.7,0007.29,0010.95,0006.84
2023-08-06 21:29:00,SystemResetWarning,0836.8,5.00,000.00,029.5,025.8,000.0,037.9,030.8,32.1,-001.4,0007.31,0010.80,0006.84
2023-08-06 21:30:00,SystemResetWarning,0836.8,5.01,000.00,029.5,025.6,000.0,037.8,030.6,32.2,-001.2,0007.31,0010.85,0006.83
2023-08-06 21:31:00,SystemResetWarning,0836.8,5.02,000.00,029.4,025.9,000.0,037.9,030.6,32.0,-001.0,0007.31,0011.18,0006.83
2023-08-06 21:32:00,SystemResetWarning,0836.8,4.99,000.00,029.3,026.2,000.0,037.9,030.7,31.8,-001.2,0007.30,0011.11,0006.85
2023-08-06 21:33:00,SystemResetWarning,0836.8,5.00,000.00,029.3,026.6,000.0,037.9,030.8,31.7,-001.2,0007.29,0011.08,0006.85
2023-08-06 21:34:00,SystemResetWarning,0836.8,5.02,000.00,029.3,026.9,000.0,037.9,030.8,31.8,-001.1,0007.35,0011.24,0006.88
2023-08-06 21:35:00,SystemResetWarning,0836.8,5.00,000.00,029.3,027.2,000.0,037.9,030.9,31.8,-001.2,0007.37,0011.34,0006.90
2023-08-06 21:36:00,SystemResetWarning,0836.8,4.99,000.00,029.3,027.5,000.0,037.9,030.9,31.7,-001.1,0007.40,0011.35,0006.91
2023-08-06 21:37:00,SystemResetWarning,0836.9,5.00,000.00,029.4,027.7,000.0,037.9,031.0,31.9,-000.9,0007.45,0011.37,0006.94
2023-08-06 21:38:00,SystemResetWarning,0836.8,5.01,000.00,029.4,027.8,000.0,037.9,031.0,31.5,-001.1,0007.47,0011.34,0006.96
2023-08-06 21:39:00,SystemResetWarning,0836.8,5.00,000.00,029.4,028.0,000.0,037.9,031.1,31.1,-001.6,0007.46,0011.10,0006.98
2023-08-06 21:40:00,SystemResetWarning,0836.6,4.99,000.00,029.4,028.1,000.0,038.0,031.1,30.9,-002.1,0007.48,0011.09,0006.98
2023-08-06 21:41:00,SystemResetWarning,0836.5,4.99,000.00,029.5,028.2,000.0,038.0,031.1,30.8,-002.6,0007.51,0011.13,0006.99
2023-08-06 21:42:00,SystemResetWarning,0836.5,4.99,000.00,029.5,028.2,000.0,038.0,031.2,30.8,-002.7,0007.53,0010.34,0007.02
2023-08-06 21:43:00,SystemResetWarning,0836.5,5.01,000.00,029.5,028.3,000.0,038.0,031.2,30.9,-003.0,0007.58,0010.48,0007.03
2023-08-06 21:44:00,SystemResetWarning,0836.5,5.01,000.00,029.5,028.4,000.0,038.0,031.3,30.3,-003.1,0007.63,0011.21,0007.05
2023-08-06 21:45:00,SystemResetWarning,0836.5,5.00,000.00,029.6,028.5,000.0,038.1,031.3,30.4,-003.1,0007.66,0011.22,0007.07
2023-08-06 21:46:00,SystemResetWarning,0836.5,4.98,000.00,029.6,028.2,000.0,038.0,031.3,30.4,-002.9,0007.73,0011.19,0007.12
2023-08-06 21:47:00,SystemResetWarning,0836.4,5.00,000.00,029.6,026.5,000.0,037.9,031.0,30.6,-002.9,0007.76,0011.24,0007.14
2023-08-06 21:48:00,SystemResetWarning,0836.4,5.01,000.00,029.5,025.6,000.0,037.8,030.9,30.8,-002.7,0007.76,0011.21,0007.15
2023-08-06 21:49:00,SystemResetWarning,0836.4,5.01,000.00,029.4,025.7,000.0,037.8,030.6,30.8,-002.8,0007.76,0011.29,0007.14
2023-08-06 21:50:00,SystemResetWarning,0836.4,5.00,000.00,029.3,026.0,000.0,037.9,030.6,31.2,-002.7,0007.77,0011.88,0007.17
2023-08-06 21:51:00,SystemResetWarning,0836.5,5.00,000.00,029.3,026.4,000.0,037.9,030.8,31.3,-002.7,0007.76,0012.00,0007.20
2023-08-06 21:52:00,SystemResetWarning,0836.6,5.00,000.00,029.3,026.7,000.0,037.9,030.8,31.5,-002.5,0007.81,0012.73,0007.26
2023-08-06 21:53:00,SystemResetWarning,0836.8,5.00,000.00,029.3,027.1,000.0,037.9,030.9,31.6,-002.5,0007.87,0012.90,0007.32
2023-08-06 21:54:00,SystemResetWarning,0836.8,5.00,000.00,029.4,027.4,000.0,037.9,031.0,31.5,-002.1,0007.95,0012.95,0007.40
2023-08-06 21:55:00,SystemResetWarning,0836.9,5.00,000.00,029.4,027.6,000.0,037.9,031.0,31.7,-001.9,0008.05,0012.44,0007.47
2023-08-06 21:56:00,SystemResetWarning,0837.0,5.00,000.00,029.4,027.8,000.0,037.9,031.1,31.5,-001.8,0008.10,0012.50,0007.53
2023-08-06 21:57:00,SystemResetWarning,0837.0,5.00,000.00,029.4,027.9,000.0,038.0,031.1,31.5,-001.8,0008.09,0012.51,0007.56
2023-08-06 21:58:00,SystemResetWarning,0837.0,5.00,000.00,029.5,028.1,000.0,038.0,031.1,31.2,-002.1,0008.15,0013.47,0007.61
2023-08-06 21:59:00,SystemResetWarning,0837.0,5.00,000.00,029.5,028.2,000.0,038.0,031.2,31.3,-002.1,0008.22,0013.79,0007.68
